Boisbriand, Quebec

10:22 PM EDT on October 16, 2017 (GMT -0400)
Sainte Therese | | Change Station

Elev 10 ft 45.64 °N, 73.82 °W | Updated 4 seconds ago

Clear
Clear
36.7 °F
Feels Like 37 °F
N
0.0
Wind Variable Wind from SSW

Today
High -- | Low -- °F
--% Chance of Precip.
Yesterday
High -- | Low -- °F
Precip. -- in
Pressure 30.21 in
Visibility 25.0 miles
Clouds Few 5500 ft
Windchill 37 °F
Dew Point 31 °F
Humidity 81%
Rainfall 0.00 in
Snow Depth Not available.
7:13 AM 6:07 PM
Waning Crescent, 8% visible
METAR CYMX 170200Z 26003KT 25SM FEW055 03/M02 A3019 RMK SC1 SLP230
Pressure 30.21 in
Visibility 25.0 miles
Clouds Few 5500 ft
Windchill 37 °F
Dew Point 31 °F
Humidity 81%
Rainfall 0.00 in
Snow Depth Not available.
7:13 AM 6:07 PM
Waning Crescent, 8% visible
METAR CYMX 170200Z 26003KT 25SM FEW055 03/M02 A3019 RMK SC1 SLP230

Get Severe Weather Alerts

Thanks for signing up!

Be on the lookout for a verification email in your inbox.

You'll start receiving the daily forecast at 6 AM.

×

10-Day Weather Forecast

Almanac

Astronomy

Oct. 16, 2017 Rise Set
Actual Time
Civil Twilight
Nautical Twilight
Astronomical Twilight
Moon
Length of Visible Light
Length of Day
Tomorrow will be .
, % of the Moon is Illuminated

Today's Extremes

Country Highs Country Lows

Community

WunderPhotos

Category 6

Welcome to Category 6. This is the collective home for Weather Underground's featured writeups by Dr. Jeff Masters (right), Bob Henson (left), Chris Burt, and other regular contributors.

Nearby

Air Quality

  Air Quality AQ Index Pollutant
Not available.

Snow Depth

Station Depth Elevation

Earthquake Activity

City Distance Mag. Time & Date
Minimum magnitude displayed is 2.5.

Coastal Water Temperatures

Place Temperature

Stations

Nearby Weather Stations

Station Location Temp. Windchill Dew Point Humidity Wind Precip. Elev Updated Type
                   

Watches & Warnings

There are currently no watches in effect.